Location: Killam
(52.7910°N, 111.8608°W)
Time: 12:25:31
(UTC+00:00)

ISS - Pass Details

Date: 20 January 2026
Orbit: 413 x 428 km, 51.6° (Epoch: 18 February)

Event Time Altitude Azimuth Distance (km) Brightness Sun altitude
Rises 01:17:20 0° 252° (WSW) 2,358 2.2 -12.9°
Reaches altitude 10° 01:19:26 10° 249° (WSW) 1,499 0.5 -13.2°
Maximum altitude 01:22:45 62° 169° (SSE) 478 -3.5 -13.6°
Enters shadow 01:24:29 26° 95° (E) 878 -2.7 -13.9°
